YAOGAN-43 01B (60459 NORAD) Tracking and Keplerian Element Data

This shows tracking and keplerian element data for the satellite.

Feedback or suggestion? Click here.




ElementValue
Catalog60459
NameYAOGAN-43 01B
Epoch Orbit871
Epoch Day286.79359751
Epoch Year2024
RAAN54.0287
Inclination34.9966
Eccentricity0.0006544
Argument of Perigee44.0033
Mean Anonmoly316.1202
Mean Motion15.22487979
Decay Rate0.00024732
L11 60459U 24148B 24286.79359751 .00024732 00000+0 10399-2 0 9992
L22 60459 34.9966 54.0287 0006544 44.0033 316.1202 15.22487979 8717



Live tracking and technical data element details for YAOGAN-43 01B (NORAD 60459). YAOGAN-43 01B can be tracked NOW for your location showing map with azimuth and elevation plus other details from your city location.







IsCatalogInMostPopularTable: catalog: 60459, numindb: 5
Update: records affected: 1



GetName: 60459 YAOGAN-43 01B

Hit Count: updated at: Fri, 06 Dec 2024 12:01:10 GMT